EW5239 Weather Reports


Display with metric or nautical units.
time (UTC)temp
F
wind
direction
speed
MPH
gust
MPH
rain 1hr
in
rain 24hr
in
rain mn
in
humidity
%
barometer
mb
20260506021005 51 0 0.0 0.0 0.00 0.00 0.00 93 1003.5
20260506020725 51 135 0.0 1.0 0.00 0.00 0.00 96 1005.3
20260506020504 53 135 0.0 1.0 0.00 0.00 0.00 93 1003.5
20260506020230 51 135 0.0 2.0 0.00 0.00 0.00 96 1005.3
20260506020004 53 130 0.0 2.0 0.00 0.00 0.00 93 1003.5
20260506015724 52 125 1.0 2.0 0.00 0.00 0.00 96 1005.4
20260506015504 53 127 1.0 2.0 0.00 0.00 0.00 93 1003.5
20260506015225 52 129 2.0 2.0 0.00 0.00 0.00 96 1005.3
20260506015004 53 134 2.0 3.0 0.00 0.00 0.00 93 1003.6
20260506014725 52 133 2.0 3.0 0.00 0.00 0.00 96 1005.4
20260506014224 51 135 1.0 3.0 0.00 0.00 0.00 96 1005.2
20260506013724 52 135 1.0 2.0 0.00 0.00 0.00 96 1005.4
20260506013504 53 115 0.0 2.0 0.00 0.00 0.00 92 1003.7
20260506013225 52 135 1.0 2.0 0.00 0.00 0.00 95 1005.3
20260506013004 53 128 1.0 2.0 0.00 0.00 0.00 92 1003.7
20260506012725 52 135 2.0 2.0 0.00 0.00 0.00 95 1005.4
20260506012505 53 121 2.0 3.0 0.00 0.00 0.00 92 1003.7
20260506012225 52 129 2.0 2.0 0.00 0.00 0.00 94 1005.2
20260506012004 53 115 2.0 3.0 0.00 0.00 0.00 92 1003.5
20260506011505 53 121 1.0 3.0 0.00 0.00 0.00 92 1003.5
20260506011224 52 125 1.0 3.0 0.00 0.00 0.00 94 1005.4
20260506010725 52 118 0.0 2.0 0.00 0.00 0.00 94 1005.4
20260506010230 53 123 0.0 1.0 0.00 0.00 0.00 94 1005.4
20260506005724 53 127 0.0 2.0 0.00 0.00 0.00 94 1005.5
20260506005505 54 118 1.0 2.0 0.00 0.00 0.00 91 1003.8
20260506005224 53 119 1.0 2.0 0.00 0.00 0.00 94 1005.5
20260506005004 54 115 2.0 3.0 0.00 0.00 0.00 91 1003.9
20260506004505 54 118 3.0 4.0 0.00 0.00 0.00 90 1003.9
20260506004224 53 126 3.0 4.0 0.00 0.00 0.00 94 1005.4
20260506004004 54 118 3.0 4.0 0.00 0.00 0.00 90 1003.9
20260506003504 54 105 4.0 4.0 0.00 0.00 0.00 90 1003.9
20260506003225 53 116 3.0 3.0 0.00 0.00 0.00 94 1005.6
20260506003004 54 94 2.0 4.0 0.00 0.00 0.00 90 1003.8
20260506002724 53 115 2.0 3.0 0.00 0.00 0.00 94 1005.5
20260506002504 54 99 1.0 4.0 0.00 0.00 0.00 90 1003.7
20260506002224 53 126 2.0 3.0 0.00 0.00 0.00 93 1005.6
20260506002004 54 101 2.0 3.0 0.00 0.00 0.00 89 1003.8
20260506001725 54 125 2.0 3.0 0.00 0.00 0.00 92 1005.7
20260506001504 54 102 1.0 3.0 0.00 0.00 0.00 89 1004.0
20260506001224 53 117 1.0 3.0 0.00 0.00 0.00 93 1005.4
20260506000724 53 97 1.0 2.0 0.00 0.00 0.00 93 1005.5
20260506000231 53 98 1.0 2.0 0.00 0.00 0.00 92 1005.6
20260506000004 54 0 0.0 0.0 0.00 0.00 0.00 88 1003.9
20260505235724 53 101 0.0 2.0 0.00 0.00 0.00 92 1005.4
20260505235504 54 135 0.0 2.0 0.00 0.00 0.00 87 1004.1
20260505235004 54 128 0.0 2.0 0.00 0.00 0.00 87 1004.1
20260505234504 54 131 0.0 1.0 0.00 0.00 0.00 87 1004.1
20260505234225 54 97 0.0 2.0 0.00 0.00 0.00 91 1005.7
20260505234004 55 90 1.0 2.0 0.00 0.00 0.00 88 1004.1
20260505233504 55 103 2.0 2.0 0.00 0.00 0.00 88 1004.0
20260505233225 54 110 1.0 2.0 0.00 0.00 0.00 91 1005.7
20260505233004 55 116 1.0 2.0 0.00 0.00 0.00 87 1004.0
20260505232724 54 119 1.0 3.0 0.00 0.00 0.00 90 1005.7
20260505232504 55 109 2.0 4.0 0.00 0.00 0.00 87 1004.0
20260505232225 54 89 2.0 4.0 0.00 0.00 0.00 90 1005.7
20260505232004 55 89 3.0 4.0 0.00 0.00 0.00 86 1004.1
20260505231725 54 66 2.0 4.0 0.00 0.00 0.00 89 1005.8
20260505231504 55 64 3.0 4.0 0.00 0.00 0.00 85 1004.3
20260505231225 54 145 2.0 4.0 0.00 0.00 0.00 89 1005.9
20260505231005 55 94 2.0 4.0 0.00 0.00 0.00 86 1004.4
20260505230504 55 107 1.0 2.0 0.00 0.00 0.00 85 1004.1
20260505230005 55 246 1.0 3.0 0.00 0.00 0.00 85 1004.2
20260505225725 54 282 1.0 3.0 0.00 0.00 0.00 87 1006.1
20260505225504 55 282 2.0 4.0 0.00 0.00 0.00 85 1004.3
20260505225224 54 154 2.0 4.0 0.00 0.00 0.00 87 1005.9
20260505225005 56 242 3.0 4.0 0.00 0.00 0.00 85 1004.3
20260505224724 54 150 2.0 4.0 0.00 0.00 0.00 86 1005.7
20260505224504 56 165 3.0 4.0 0.00 0.00 0.00 84 1004.3
20260505224225 55 191 2.0 4.0 0.00 0.00 0.00 86 1006.0
20260505224004 56 174 2.0 4.0 0.00 0.00 0.00 85 1004.3
20260505223725 56 192 1.0 2.0 0.00 0.00 0.00 86 1005.8
20260505223225 56 198 1.0 2.0 0.00 0.00 0.00 86 1005.9
20260505223004 57 183 1.0 3.0 0.00 0.00 0.00 84 1004.3
20260505222504 57 151 2.0 3.0 0.00 0.00 0.00 82 1004.2
20260505222225 56 151 1.0 3.0 0.00 0.00 0.00 85 1006.1
20260505222004 58 130 1.0 3.0 0.00 0.00 0.00 82 1004.3
20260505221724 56 159 1.0 2.0 0.00 0.00 0.00 85 1006.0
20260505221504 58 257 2.0 2.0 0.00 0.00 0.00 81 1004.3
20260505221224 57 45 1.0 2.0 0.00 0.00 0.00 85 1005.9
20260505221005 59 302 2.0 2.0 0.00 0.00 0.00 83 1004.3
20260505220725 58 57 1.0 2.0 0.00 0.00 0.00 84 1005.9
20260505220504 58 330 2.0 3.0 0.00 0.00 0.00 81 1004.1
20260505220231 58 344 2.0 4.0 0.00 0.00 0.00 84 1005.9
20260505220005 58 238 3.0 4.0 0.00 0.00 0.00 81 1004.3
20260505215725 58 325 3.0 4.0 0.00 0.00 0.00 83 1006.0
20260505215005 60 259 4.0 5.0 0.00 0.00 0.00 79 1004.2
20260505214724 59 327 3.0 5.0 0.00 0.00 0.00 83 1006.0
20260505213725 59 287 6.0 9.0 0.00 0.00 0.00 83 1006.0
20260505213224 59 22 4.0 8.0 0.00 0.00 0.00 83 1006.0
20260505213004 60 282 3.0 8.0 0.00 0.00 0.00 78 1004.4
20260505212725 59 63 1.0 3.0 0.00 0.00 0.00 82 1006.0
20260505212504 60 126 1.0 2.0 0.00 0.00 0.00 77 1004.2
20260505212224 59 295 0.0 2.0 0.00 0.00 0.00 81 1005.9
20260505211725 59 196 1.0 2.0 0.00 0.00 0.00 80 1006.1
20260505211504 60 126 1.0 2.0 0.00 0.00 0.00 77 1004.3
20260505211225 59 87 1.0 2.0 0.00 0.00 0.00 79 1006.1
20260505211004 60 41 2.0 2.0 0.00 0.00 0.00 76 1004.4
20260505210724 59 352 1.0 2.0 0.00 0.00 0.00 78 1006.0
20260505210504 60 327 1.0 2.0 0.00 0.00 0.00 75 1004.3
20260505210231 60 350 1.0 2.0 0.00 0.00 0.00 76 1005.8
20260505210005 61 4 1.0 2.0 0.00 0.00 0.00 74 1004.4
20260505205724 60 31 1.0 2.0 0.00 0.00 0.00 76 1006.0
20260505205504 61 332 1.0 2.0 0.00 0.00 0.00 72 1004.3
20260505205225 61 345 1.0 2.0 0.00 0.00 0.00 74 1006.0
20260505205004 62 322 2.0 3.0 0.00 0.00 0.00 71 1004.4
20260505204725 62 29 1.0 2.0 0.00 0.00 0.00 72 1006.1
20260505204504 63 340 1.0 3.0 0.00 0.00 0.00 70 1004.3
20260505204224 62 46 0.0 2.0 0.00 0.00 0.00 72 1005.9
20260505204004 63 196 0.0 2.0 0.00 0.00 0.00 69 1004.3
20260505203724 63 0 0.0 0.0 0.00 0.00 0.00 71 1006.1
20260505203504 64 40 0.0 1.0 0.00 0.00 0.00 69 1004.4
20260505203225 63 46 0.0 1.0 0.00 0.00 0.00 70 1006.1
20260505202504 64 339 2.0 4.0 0.00 0.00 0.00 68 1004.4
20260505201725 64 51 3.0 6.0 0.00 0.00 0.00 69 1005.7
20260505201504 65 354 4.0 6.0 0.00 0.00 0.00 67 1004.3
20260505201225 65 38 4.0 6.0 0.00 0.00 0.00 68 1005.8
20260505201004 65 1 3.0 5.0 0.00 0.00 0.00 66 1004.2
20260505200504 64 347 3.0 5.0 0.00 0.00 0.00 64 1004.2
20260505200231 64 28 4.0 5.0 0.00 0.00 0.00 66 1005.9
20260505200004 64 349 4.0 5.0 0.00 0.00 0.00 64 1004.2
20260505195724 64 36 3.0 5.0 0.00 0.00 0.00 65 1005.8
20260505195504 64 349 4.0 5.0 0.00 0.00 0.00 63 1004.2
20260505195225 64 19 2.0 4.0 0.00 0.00 0.00 64 1005.8
20260505195005 64 313 3.0 4.0 0.00 0.00 0.00 62 1004.3
20260505194725 63 195 2.0 4.0 0.00 0.00 0.00 62 1005.9
20260505194504 64 215 2.0 4.0 0.00 0.00 0.00 61 1004.3
20260505194224 63 187 2.0 4.0 0.00 0.00 0.00 62 1005.8
20260505194004 64 228 3.0 4.0 0.00 0.00 0.00 59 1004.3
20260505193724 63 155 2.0 4.0 0.00 0.00 0.00 60 1005.7
20260505193225 63 346 3.0 8.0 0.00 0.00 0.00 57 1005.8
20260505193004 63 350 2.0 9.0 0.00 0.00 0.00 56 1004.2
20260505192504 63 321 4.0 9.0 0.00 0.00 0.00 53 1004.1
20260505192225 62 286 3.0 7.0 0.00 0.00 0.00 55 1005.7
20260505192004 63 284 3.0 6.0 0.00 0.00 0.00 52 1004.1
20260505191225 62 296 1.0 3.0 0.00 0.00 0.00 52 1005.7
20260505191004 64 270 0.0 3.0 0.00 0.00 0.00 49 1004.0
20260505190505 65 0 0.0 0.0 0.00 0.00 0.00 47 1003.9
20260505190231 64 270 0.0 1.0 0.00 0.00 0.00 47 1005.4
20260505190004 66 290 1.0 2.0 0.00 0.00 0.00 46 1003.7
20260505185724 65 279 0.0 2.0 0.00 0.00 0.00 46 1005.5
20260505185505 67 269 2.0 2.0 0.00 0.00 0.00 44 1003.8
20260505185225 67 270 1.0 2.0 0.00 0.00 0.00 44 1005.3
20260505184725 68 200 2.0 4.0 0.00 0.00 0.00 41 1005.3
20260505184004 69 182 3.0 4.0 0.00 0.00 0.00 41 1003.6
20260505183505 69 168 3.0 4.0 0.00 0.00 0.00 41 1003.6
20260505183225 69 158 3.0 4.0 0.00 0.00 0.00 40 1005.1
20260505183004 69 162 3.0 4.0 0.00 0.00 0.00 42 1003.6
20260505182725 69 166 2.0 4.0 0.00 0.00 0.00 41 1005.3
20260505182504 69 171 2.0 4.0 0.00 0.00 0.00 41 1003.7
20260505182005 70 183 2.0 2.0 0.00 0.00 0.00 39 1003.6
20260505181725 70 174 1.0 2.0 0.00 0.00 0.00 39 1005.3
20260505181224 70 166 0.0 1.0 0.00 0.00 0.00 36 1005.1
20260505181005 71 181 0.0 2.0 0.00 0.00 0.00 36 1003.7
20260505180725 71 0 0.0 0.0 0.00 0.00 0.00 35 1005.3
20260505180504 72 181 0.0 1.0 0.00 0.00 0.00 33 1003.6
20260505180004 72 222 0.0 1.0 0.00 0.00 0.00 33 1003.6
20260505175725 72 181 0.0 1.0 0.00 0.00 0.00 32 1005.3
20260505175505 73 257 1.0 2.0 0.00 0.00 0.00 33 1003.4
20260505175224 72 270 0.0 2.0 0.00 0.00 0.00 32 1005.2
20260505175004 74 274 1.0 2.0 0.00 0.00 0.00 34 1003.5
20260505174724 73 256 1.0 2.0 0.00 0.00 0.00 32 1005.1
20260505174504 74 268 2.0 2.0 0.00 0.00 0.00 33 1003.4
20260505174225 73 262 1.0 2.0 0.00 0.00 0.00 32 1005.0
20260505174004 74 265 2.0 2.0 0.00 0.00 0.00 33 1003.4
20260505173725 74 266 2.0 2.0 0.00 0.00 0.00 32 1005.2
20260505173504 75 264 2.0 4.0 0.00 0.00 0.00 32 1003.4
20260505173224 74 280 3.0 4.0 0.00 0.00 0.00 30 1004.9
20260505173004 75 259 3.0 4.0 0.00 0.00 0.00 30 1003.4
20260505172725 75 273 3.0 5.0 0.00 0.00 0.00 30 1005.1
20260505172224 75 267 3.0 5.0 0.00 0.00 0.00 29 1005.2
20260505172004 77 266 3.0 4.0 0.00 0.00 0.00 30 1003.5
20260505171505 77 253 3.0 5.0 0.00 0.00 0.00 28 1003.4
20260505171225 76 265 4.0 6.0 0.00 0.00 0.00 28 1005.2
20260505171004 77 249 5.0 8.0 0.00 0.00 0.00 28 1003.5
20260505170724 76 268 6.0 9.0 0.00 0.00 0.00 27 1005.1
20260505170504 77 264 6.0 8.0 0.00 0.00 0.00 27 1003.6
20260505170004 78 270 6.0 8.0 0.00 0.00 0.00 27 1003.4
20260505165725 77 274 7.0 9.0 0.00 0.00 0.00 25 1005.1
20260505165504 78 259 7.0 8.0 0.00 0.00 0.00 26 1003.5
20260505165224 78 291 8.0 11.0 0.00 0.00 0.00 25 1005.2
20260505165004 79 282 8.0 11.0 0.00 0.00 0.00 26 1003.5
20260505164724 78 292 8.0 11.0 0.00 0.00 0.00 24 1005.1
20260505164504 79 293 8.0 11.0 0.00 0.00 0.00 24 1003.6
20260505164225 79 297 7.0 10.0 0.00 0.00 0.00 24 1005.4
20260505164004 79 276 8.0 10.0 0.00 0.00 0.00 24 1003.6
20260505163725 79 266 8.0 10.0 0.00 0.00 0.00 23 1005.0
20260505163504 80 270 8.0 10.0 0.00 0.00 0.00 23 1003.6
20260505163004 80 248 8.0 10.0 0.00 0.00 0.00 22 1003.5
20260505162504 80 235 8.0 10.0 0.00 0.00 0.00 22 1003.7
20260505162224 80 268 8.0 11.0 0.00 0.00 0.00 17 1005.1
20260505162004 80 243 9.0 11.0 0.00 0.00 0.00 21 1003.6
20260505161725 80 296 9.0 13.0 0.00 0.00 0.00 17 1005.3
20260505161504 80 224 10.0 12.0 0.00 0.00 0.00 21 1003.7
20260505160504 80 198 10.0 12.0 0.00 0.00 0.00 20 1003.6
20260505153224 80 218 9.0 13.0 0.00 0.00 0.00 15 1005.6
20260505153004 81 218 10.0 14.0 0.00 0.00 0.00 18 1003.8
20260505152725 80 214 11.0 13.0 0.00 0.00 0.00 15 1005.3
20260505152225 81 215 10.0 13.0 0.00 0.00 0.00 14 1005.6
20260505152004 81 182 10.0 15.0 0.00 0.00 0.00 18 1003.8
20260505151725 81 225 10.0 12.0 0.00 0.00 0.00 15 1005.6
20260505151504 81 189 10.0 14.0 0.00 0.00 0.00 20 1003.9
20260505151224 81 225 10.0 15.0 0.00 0.00 0.00 15 1005.3
20260505150725 81 229 9.0 15.0 0.00 0.00 0.00 15 1005.9
20260505150504 81 231 10.0 15.0 0.00 0.00 0.00 20 1003.9
20260505150231 81 238 10.0 12.0 0.00 0.00 0.00 16 1005.6
20260505140230 82 215 10.0 15.0 0.00 0.00 0.00 18 1006.0
20260505130233 81 199 9.0 14.0 0.00 0.00 0.00 21 1006.8
20260505125004 81 193 11.0 18.0 0.00 0.00 0.00 21 1005.0
20260505124725 82 171 12.0 18.0 0.00 0.00 0.00 19 1006.6
20260505124504 81 174 11.0 18.0 0.00 0.00 0.00 21 1005.1
20260505124224 81 181 11.0 21.0 0.00 0.00 0.00 18 1006.6
20260505124004 81 177 13.0 21.0 0.00 0.00 0.00 21 1005.1
20260505123724 81 215 13.0 21.0 0.00 0.00 0.00 18 1006.9
20260505123504 81 198 14.0 21.0 0.00 0.00 0.00 21 1005.3
20260505123225 81 216 12.0 17.0 0.00 0.00 0.00 18 1006.9
20260505123004 81 207 12.0 16.0 0.00 0.00 0.00 21 1005.3
20260505122725 81 184 12.0 17.0 0.00 0.00 0.00 18 1006.8
20260505122504 81 184 11.0 16.0 0.00 0.00 0.00 21 1005.3
20260505122225 82 173 12.0 17.0 0.00 0.00 0.00 17 1006.8
20260505122004 81 195 11.0 15.0 0.00 0.00 0.00 21 1005.4
20260505121724 81 202 12.0 19.0 0.00 0.00 0.00 18 1006.9
20260505121004 81 192 10.0 16.0 0.00 0.00 0.00 21 1005.5
20260505120725 82 184 8.0 9.0 0.00 0.00 0.00 21 1006.9
20260505120504 80 185 9.0 12.0 0.00 0.00 0.00 23 1005.5
20260505120231 82 184 8.0 11.0 0.00 0.00 0.00 18 1006.9
20260505115225 80 205 8.0 11.0 0.00 0.00 0.00 22 1006.9
20260505115004 80 194 9.0 12.0 0.00 0.00 0.00 22 1005.6
20260505114504 79 201 8.0 12.0 0.00 0.00 0.00 23 1005.5
20260505114224 79 186 8.0 14.0 0.00 0.00 0.00 22 1007.1
20260505114004 79 195 9.0 13.0 0.00 0.00 0.00 23 1005.7
20260505113724 79 196 10.0 14.0 0.00 0.00 0.00 19 1007.1
20260505113504 79 186 9.0 13.0 0.00 0.00 0.00 23 1005.8
20260505112724 80 189 10.0 14.0 0.00 0.00 0.00 22 1007.2
20260505112504 80 194 11.0 15.0 0.00 0.00 0.00 23 1005.7
20260505112224 80 182 10.0 14.0 0.00 0.00 0.00 20 1007.4
20260505112004 80 196 10.0 15.0 0.00 0.00 0.00 24 1005.9
20260505111725 80 188 9.0 14.0 0.00 0.00 0.00 23 1007.5
20260505111504 79 177 8.0 10.0 0.00 0.00 0.00 28 1006.0
20260505111226 79 189 8.0 11.0 0.00 0.00 0.00 24 1007.1
20260505111003 79 197 8.0 11.0 0.00 0.00 0.00 28 1005.9
20260505110725 79 203 8.0 11.0 0.00 0.00 0.00 24 1007.6
20260505110504 78 205 9.0 11.0 0.00 0.00 0.00 27 1005.9
20260505110230 79 222 7.0 11.0 0.00 0.00 0.00 24 1007.5
20260505101724 78 223 8.0 11.0 0.00 0.00 0.00 29 1008.0
20260505101504 78 221 7.0 12.0 0.00 0.00 0.00 33 1006.6
20260505101224 78 222 9.0 9.0 0.00 0.00 0.00 29 1008.1
20260505101004 78 220 6.0 6.0 0.00 0.00 0.00 32 1006.7
20260505100725 78 225 9.0 9.0 0.00 0.00 0.00 29 1008.1
20260505100504 78 237 6.0 9.0 0.00 0.00 0.00 33 1006.7
20260505100005 78 256 7.0 10.0 0.00 0.00 0.00 33 1006.8
20260505095504 78 263 7.0 10.0 0.00 0.00 0.00 33 1007.0
20260505095225 78 266 7.0 10.0 0.00 0.00 0.00 28 1008.4
20260505094725 78 243 7.0 11.0 0.00 0.00 0.00 29 1008.4
20260505094504 77 239 7.0 11.0 0.00 0.00 0.00 33 1006.9
20260505094225 78 228 7.0 11.0 0.00 0.00 0.00 29 1008.5
20260505094004 77 233 7.0 11.0 0.00 0.00 0.00 33 1007.1
20260505093725 78 212 8.0 11.0 0.00 0.00 0.00 28 1008.7
20260505093225 78 218 7.0 10.0 0.00 0.00 0.00 29 1008.3
20260505093004 77 208 6.0 10.0 0.00 0.00 0.00 33 1007.2
20260505092725 77 237 7.0 8.0 0.00 0.00 0.00 31 1008.8
20260505092504 77 241 6.0 8.0 0.00 0.00 0.00 34 1007.3
20260505092225 77 254 6.0 8.0 0.00 0.00 0.00 31 1008.8
20260505092004 77 253 6.0 8.0 0.00 0.00 0.00 34 1007.2
20260505091725 77 256 6.0 9.0 0.00 0.00 0.00 31 1008.7
20260505091504 77 259 6.0 8.0 0.00 0.00 0.00 35 1007.3
20260505091225 77 246 6.0 9.0 0.00 0.00 0.00 31 1008.8
20260505091004 76 242 6.0 8.0 0.00 0.00 0.00 35 1007.5
20260505090725 76 226 6.0 9.0 0.00 0.00 0.00 34 1008.8
20260505090504 76 220 7.0 11.0 0.00 0.00 0.00 35 1007.3
20260505090231 76 244 7.0 10.0 0.00 0.00 0.00 31 1008.9
20260505090005 76 234 8.0 11.0 0.00 0.00 0.00 35 1007.4
20260505085725 76 243 8.0 11.0 0.00 0.00 0.00 34 1009.0
20260505085504 76 246 8.0 11.0 0.00 0.00 0.00 35 1007.4
20260505085225 76 217 7.0 11.0 0.00 0.00 0.00 33 1008.9
20260505085004 75 239 7.0 10.0 0.00 0.00 0.00 35 1007.4
20260505084724 75 261 7.0 11.0 0.00 0.00 0.00 34 1009.0
20260505084504 75 237 7.0 11.0 0.00 0.00 0.00 38 1007.4
20260505084004 74 244 7.0 11.0 0.00 0.00 0.00 38 1007.4
20260505083725 75 230 6.0 10.0 0.00 0.00 0.00 36 1009.1
20260505083504 74 256 6.0 9.0 0.00 0.00 0.00 39 1007.6
20260505083224 74 227 6.0 10.0 0.00 0.00 0.00 37 1009.2
20260505083005 74 225 6.0 10.0 0.00 0.00 0.00 39 1007.6
20260505082725 74 216 6.0 10.0 0.00 0.00 0.00 38 1009.2
20260505082225 73 223 7.0 11.0 0.00 0.00 0.00 37 1009.2
20260505081724 73 230 8.0 11.0 0.00 0.00 0.00 35 1009.4
20260505081224 72 229 6.0 8.0 0.00 0.00 0.00 35 1009.3
20260505081004 73 238 7.0 8.0 0.00 0.00 0.00 37 1007.7
20260505080725 72 226 5.0 7.0 0.00 0.00 0.00 35 1009.4
20260505080230 72 214 5.0 6.0 0.00 0.00 0.00 36 1009.4
20260505080004 72 222 4.0 7.0 0.00 0.00 0.00 39 1007.9
20260505075725 72 219 4.0 6.0 0.00 0.00 0.00 36 1009.5
20260505075504 72 218 5.0 8.0 0.00 0.00 0.00 38 1007.8
20260505075224 72 239 5.0 7.0 0.00 0.00 0.00 36 1009.5
20260505075004 71 220 6.0 8.0 0.00 0.00 0.00 39 1007.7
20260505074725 71 244 5.0 7.0 0.00 0.00 0.00 37 1009.3
20260505074225 71 263 6.0 8.0 0.00 0.00 0.00 36 1009.6
20260505074003 71 265 6.0 8.0 0.00 0.00 0.00 40 1007.9
20260505073725 71 244 6.0 8.0 0.00 0.00 0.00 39 1009.6
20260505073504 70 240 5.0 8.0 0.00 0.00 0.00 42 1008.0
20260505073225 70 218 5.0 8.0 0.00 0.00 0.00 38 1009.6
20260505073004 70 247 5.0 8.0 0.00 0.00 0.00 41 1008.0
20260505072725 69 240 5.0 6.0 0.00 0.00 0.00 42 1009.6
20260505072503 69 254 5.0 6.0 0.00 0.00 0.00 44 1008.1
20260505072225 69 231 5.0 7.0 0.00 0.00 0.00 43 1009.5
20260505072004 69 240 5.0 6.0 0.00 0.00 0.00 44 1008.3
20260505071725 69 221 4.0 7.0 0.00 0.00 0.00 43 1009.7
20260505071504 69 220 4.0 6.0 0.00 0.00 0.00 44 1008.0
20260505071225 68 226 4.0 5.0 0.00 0.00 0.00 43 1009.6
20260505071003 69 216 5.0 7.0 0.00 0.00 0.00 45 1008.0
20260505070724 68 205 5.0 8.0 0.00 0.00 0.00 44 1009.4
20260505070231 67 203 5.0 8.0 0.00 0.00 0.00 43 1009.6
20260505070004 68 207 6.0 8.0 0.00 0.00 0.00 45 1008.1
20260505065725 67 198 6.0 8.0 0.00 0.00 0.00 43 1009.6
20260505065503 68 198 6.0 8.0 0.00 0.00 0.00 44 1008.2
20260505065225 67 194 6.0 8.0 0.00 0.00 0.00 42 1009.9
20260505065004 67 211 6.0 8.0 0.00 0.00 0.00 44 1008.1
20260505064725 67 207 6.0 8.0 0.00 0.00 0.00 41 1009.8
20260505064504 67 239 6.0 8.0 0.00 0.00 0.00 44 1008.1
20260505064224 66 225 5.0 8.0 0.00 0.00 0.00 41 1009.8
20260505064004 67 242 4.0 6.0 0.00 0.00 0.00 45 1008.2
20260505063724 66 223 4.0 6.0 0.00 0.00 0.00 45 1009.8
20260505063504 67 217 4.0 7.0 0.00 0.00 0.00 45 1008.3
20260505062724 65 205 4.0 6.0 0.00 0.00 0.00 45 1009.9
20260505062504 66 213 4.0 6.0 0.00 0.00 0.00 46 1008.3
20260505062225 64 205 3.0 6.0 0.00 0.00 0.00 46 1009.8
20260505062004 66 207 4.0 6.0 0.00 0.00 0.00 48 1008.2
20260505061725 64 211 3.0 5.0 0.00 0.00 0.00 52 1009.7
20260505061504 66 200 3.0 5.0 0.00 0.00 0.00 51 1008.4
20260505061004 66 130 3.0 5.0 0.00 0.00 0.00 52 1008.5
20260505060724 63 184 2.0 3.0 0.00 0.00 0.00 57 1009.9
20260505060231 62 153 2.0 2.0 0.00 0.00 0.00 61 1009.9
20260505060004 66 146 2.0 2.0 0.00 0.00 0.00 58 1008.4
20260505055725 61 139 2.0 3.0 0.00 0.00 0.00 62 1010.1
20260505055504 65 150 2.0 2.0 0.00 0.00 0.00 61 1008.3
20260505055225 61 146 1.0 3.0 0.00 0.00 0.00 63 1010.1
20260505055003 64 153 2.0 2.0 0.00 0.00 0.00 64 1008.3
20260505054725 61 152 1.0 2.0 0.00 0.00 0.00 65 1010.0
20260505054504 63 171 2.0 3.0 0.00 0.00 0.00 65 1008.4
20260505054224 60 169 2.0 3.0 0.00 0.00 0.00 66 1010.0
20260505053724 60 155 2.0 3.0 0.00 0.00 0.00 68 1010.2
20260505053504 62 138 3.0 3.0 0.00 0.00 0.00 72 1008.5
20260505053225 60 118 2.0 3.0 0.00 0.00 0.00 73 1010.1
20260505053004 60 132 3.0 3.0 0.00 0.00 0.00 75 1008.5
20260505052725 60 120 2.0 3.0 0.00 0.00 0.00 73 1010.2
20260505052504 59 134 2.0 4.0 0.00 0.00 0.00 77 1008.4
20260505052225 60 101 2.0 3.0 0.00 0.00 0.00 74 1010.0
20260505052004 58 96 3.0 4.0 0.00 0.00 0.00 81 1008.4
20260505051725 60 70 2.0 4.0 0.00 0.00 0.00 76 1010.0
20260505051504 57 90 3.0 4.0 0.00 0.00 0.00 82 1008.4
20260505051004 56 108 3.0 4.0 0.00 0.00 0.00 85 1008.6
20260505050725 58 108 3.0 4.0 0.00 0.00 0.00 82 1010.1
20260505050504 55 115 3.0 4.0 0.00 0.00 0.00 85 1008.6
20260505050230 57 117 3.0 4.0 0.00 0.00 0.00 85 1010.0
20260505041504 51 0 0.0 0.0 0.00 0.00 0.00 88 1008.5
20260505041124 50 90 0.0 1.0 0.00 0.00 0.00 92 1010.2
20260505041004 51 0 0.0 0.0 0.00 0.00 0.00 88 1008.3
20260505040625 50 86 0.0 1.0 0.00 0.00 0.00 92 1010.0
20260505040504 51 0 0.0 0.0 0.00 0.00 0.00 88 1008.4
20260505040130 50 117 0.0 1.0 0.00 0.00 0.00 93 1010.2
20260505040005 51 0 0.0 0.0 0.00 0.00 0.00 88 1008.3
20260505035624 49 130 0.0 1.0 0.00 0.00 0.00 93 1010.3
20260505035504 50 90 0.0 1.0 0.00 0.00 0.00 88 1008.4
20260505035124 49 130 0.0 2.0 0.00 0.00 0.00 92 1010.1
20260505035004 50 90 0.0 1.0 0.00 0.00 0.00 87 1008.3
20260505034624 49 120 1.0 2.0 0.00 0.00 0.00 91 1010.5
20260505034003 50 128 1.0 3.0 0.00 0.00 0.00 88 1008.5
20260505033624 49 83 1.0 2.0 0.00 0.00 0.00 90 1010.1
20260505033504 50 135 0.0 2.0 0.00 0.00 0.00 86 1008.5
20260505033125 48 90 0.0 1.0 0.00 0.00 0.00 89 1010.3
20260505032624 48 0 0.0 0.0 0.00 0.00 0.00 90 1010.3
20260505032503 50 0 0.0 0.0 0.00 0.00 0.00 86 1008.4
20260505032124 48 0 0.0 0.0 0.00 0.00 0.00 88 1010.2
20260505032004 50 0 0.0 0.0 0.00 0.00 0.00 86 1008.4
20260505031624 49 0 0.0 0.0 0.00 0.00 0.00 88 1010.3
20260505031504 50 0 0.0 0.0 0.00 0.00 0.00 85 1008.4
20260505031125 49 0 0.0 0.0 0.00 0.00 0.00 88 1010.3
20260505031004 50 0 0.0 0.0 0.00 0.00 0.00 85 1008.4
20260505030624 49 135 0.0 1.0 0.00 0.00 0.00 87 1010.4
20260505030130 49 135 0.0 1.0 0.00 0.00 0.00 87 1010.3
20260505025624 50 135 0.0 1.0 0.00 0.00 0.00 87 1010.4
20260505025124 50 135 0.0 1.0 0.00 0.00 0.00 86 1010.5
20260505025004 51 0 0.0 0.0 0.00 0.00 0.00 85 1008.5
20260505024624 50 90 0.0 1.0 0.00 0.00 0.00 87 1010.3
20260505024124 51 108 0.0 1.0 0.00 0.00 0.00 87 1010.2
20260505024004 51 123 0.0 2.0 0.00 0.00 0.00 85 1008.7
20260505023624 51 104 1.0 1.0 0.00 0.00 0.00 87 1010.4
20260505023504 51 104 1.0 2.0 0.00 0.00 0.00 85 1008.7
20260505023124 51 91 1.0 2.0 0.00 0.00 0.00 86 1010.5
20260505023004 51 96 1.0 2.0 0.00 0.00 0.00 84 1008.6
20260505022625 50 90 0.0 2.0 0.00 0.00 0.00 86 1010.7
20260505022504 51 0 0.0 0.0 0.00 0.00 0.00 84 1008.7
20260505022004 51 0 0.0 0.0 0.00 0.00 0.00 84 1008.7
20260505021624 50 0 0.0 0.0 0.00 0.00 0.00 85 1010.3
20260505021504 51 0 0.0 0.0 0.00 0.00 0.00 84 1008.8